[[{"header":{"parameterUnit":"m.s-1","parameterCategory":1,"la1":30.2991,"la2":30.254,"lo1":-89.0895,"lo2":-89.0444,"dy":0.0017,"dx":0.0017,"nx":28,"ny":28,"refTime":"2024-12-26T03:00:00:Z","depth":0,"parameterNumber":2,"parameterNumberName":"U-component_of_WINDS"},"data":[0,0,0,0,0,0,0,0,0,0,0,0,0,0,0,0,0,0,0,0,0,0,0,0,0,0,0,0,0,0,0,0,0,0,0,0,0,0,0,0,0,0,0,0,0,0,0,0,0,0,0,0,0,0,0,0,0,0,-6.6666,-6.6666,0,-6.6692,-6.6692,-6.6692,-6.6538,-6.6533,-6.6529,-6.6525,-6.6553,-6.6558,-6.6563,0,0,0,0,0,0,0,0,0,0,0,0,0,-6.6488,-6.6492,-6.6666,-6.6666,-6.6667,-6.6692,-6.6692,-6.6692,-6.6538,-6.6533,-6.6528,-6.6523,-6.6552,-6.6558,-6.6563,0,0,0,0,0,0,0,0,0,0,0,0,0,-6.6545,-6.6494,-6.6666,-6.6593,-6.6587,-6.6692,-6.6692,-6.6692,-6.6539,-6.6533,-6.6526,-6.652,-6.655,-6.6557,-6.6564,-6.6741,0,0,-6.6587,-6.659,0,0,0,0,0,0,0,0,-6.6542,-6.6552,-6.6603,-6.6598,-6.6591,-6.6605,-6.6639,-6.6709,-6.6541,-6.6558,-6.6524,-6.6517,-6.6576,-6.6581,-6.66,-6.6743,-6.6744,-6.6587,-6.6592,-6.6595,-6.6597,0,0,0,0,0,0,0,-6.6538,-6.655,-6.6676,-6.6604,-6.6597,-6.656,-6.6561,-6.6652,-6.6604,-6.6556,-6.6544,-6.6549,-6.6571,-6.6593,-6.66,-6.6744,-6.6587,-6.6593,-6.6598,-6.6601,-6.7036,-6.7043,0,0,0,0,0,0,-6.6544,-6.6547,-6.6675,-6.6677,-6.655,-6.6569,-6.6569,-6.6607,-6.6602,-6.6595,-6.6555,-6.6542,-6.6584,-6.6591,-6.66,-6.6808,-6.6595,-6.6602,-6.6606,-6.7029,-6.7038,-6.7046,0,0,0,0,0,0,-6.654,-6.6556,-6.6674,-6.6609,-6.6621,-6.6579,-6.6622,-6.6611,-6.6633,-6.6602,-6.6593,-6.6586,-6.6579,-6.659,-6.6708,-6.6807,-6.6605,-6.6612,-6.7021,-6.7032,-6.7042,-6.7225,0,0,0,0,0,0,-6.6536,-6.6556,-6.6622,-6.6612,-6.6625,-6.6781,-6.6628,-6.6616,-6.6645,-6.6629,-6.6628,-6.6622,-6.6575,-6.6698,-6.6715,-6.6813,-6.6617,-6.7011,-6.7026,-6.7038,-6.721,-6.7241,-6.7268,0,0,0,0,0,-6.653,-6.6673,-6.6626,-6.6642,-6.6707,-6.6787,-6.6795,-6.6737,-6.6654,-6.672,-6.6701,-6.6622,-6.6794,-6.6711,-6.6729,-6.6831,-6.7005,-6.7022,-6.7037,-6.7197,-6.7235,-6.7267,0,0,0,0,0,0,-6.6696,-6.667,-6.6618,-6.6761,-6.6778,-6.676,-6.6842,-6.6778,-6.6819,-6.6801,-6.6729,-6.673,-6.6861,-6.6858,-6.6766,-6.7004,-6.6885,-6.6906,-6.7001,-6.7036,-6.7064,-6.7062,-6.6623,0,0,0,0,0,-6.6749,-6.6815,-6.6789,-6.6919,-6.6929,-6.6886,-6.6918,-6.6872,-6.6886,-6.6892,-6.6881,-6.6899,-6.6957,-6.6996,-6.7048,-6.721,-6.7208,-6.7289,-6.7318,-6.7341,-6.736,-6.7447,-6.7483,-6.7099,-6.7098,-6.7098,0,0,-6.6859,-6.6854,-6.69,-6.6952,-6.6959,-6.7031,-6.6892,-6.6973,-6.7026,-6.6905,-6.7015,-6.7009,-6.7024,-6.7165,-6.7227,-6.7166,-6.7466,-6.7362,-6.7381,-6.7387,-6.7467,-6.7504,-6.7536,-6.711,-6.7108,-6.7106,0,0,-6.7097,-6.7099,-6.7207,-6.7218,-6.7231,-6.7201,-6.7227,-6.7221,-6.7212,-6.7321,-6.7233,-6.7296,-6.7396,-6.7411,-6.7432,-6.768,-6.7609,-6.7699,-6.7848,-6.7934,-6.7964,-6.799,-6.8079,-6.8112,-6.7717,-6.7718,-6.7718,0,-6.7233,-6.7336,-6.7271,-6.7359,-6.7386,-6.728,-6.739,-6.7404,-6.7434,-6.7455,-6.7387,-6.7513,-6.7515,-6.7659,-6.772,-6.774,-6.7769,-6.7697,-6.7965,-6.7991,-6.8014,-6.8098,-6.8132,-6.7729,-6.7727,-6.7726,-6.7725,0,-6.7503,-6.7576,-6.7663,-6.7694,-6.773,-6.7829,-6.7781,-6.7826,-6.7778,-6.7756,-6.7871,-6.7871,-6.7921,-6.7952,-6.7906,-6.8091,-6.8053,-6.7977,-6.7856,-6.8063,-6.8141,-6.8172,-6.7744,-6.774,-6.7737,-6.7734,0,0,-6.7843,-6.7839,-6.7872,-6.7885,-6.7893,-6.7949,-6.8045,-6.8094,-6.8134,-6.8159,-6.8238,-6.8328,-6.8257,-6.8281,-6.8236,-6.8312,-6.851,-6.8226,-6.8225,-6.8279,-6.8715,-6.8772,-6.881,-6.8463,-6.8469,-6.8474,-6.8713,0,-6.8075,-6.8236,-6.8183,-6.8347,-6.8415,-6.8317,-6.8401,-6.8416,-6.8399,-6.8455,-6.8436,-6.8501,-6.8403,-6.8417,-6.8487,-6.8471,-6.8596,-6.8453,-6.8537,-6.8541,-6.8536,-6.8851,-6.8911,-6.9137,-6.8743,-6.8748,-6.8752,0,-6.8367,-6.8404,-6.8575,-6.8574,-6.86,-6.8676,-6.8718,-6.8772,-6.8789,-6.8771,-6.88,-6.874,-6.8835,-6.8715,-6.8846,-6.875,-6.8782,-6.878,-6.8787,-6.8792,-6.8658,-6.8864,-6.9207,-6.9241,-6.8799,-6.8796,-6.8792,0,-6.8598,-6.8691,-6.8806,-6.8821,-6.8822,-6.8877,-6.8881,-6.889,-6.8924,-6.8961,-6.8983,-6.9031,-6.9058,-6.9098,-6.9054,-6.897,-6.9192,-6.9068,-6.9181,-6.9182,-6.9231,-6.9228,-6.9584,-6.9253,-6.9252,-6.9252,-6.9251,0,-6.8863,-6.8972,-6.891,-6.898,-6.91,-6.9039,-6.916,-6.9152,-6.9162,-6.9231,-6.915,-6.9217,-6.9154,-6.9216,-6.9182,-6.9296,-6.9309,-6.9298,-6.9288,-6.9305,-6.9307,-6.9324,-6.9307,-6.9261,-6.9259,-6.9257,-6.9255,0,-6.914,-6.9103,-6.9222,-6.9214,-6.9215,-6.9304,-6.9297,-6.9364,-6.9342,-6.943,-6.9447,-6.9414,-6.9482,-6.9442,-6.9512,-6.949,-6.9639,-6.9607,-6.9633,-6.9624,-6.974,-6.973,-7.0118,-7.0167,-6.9806,-6.9809,-6.9812,0,-6.9311,-6.9392,-6.9394,-6.9434,-6.9443,-6.9508,-6.9543,-6.9487,-6.9527,-6.9553,-6.9617,-6.9678,-6.9724,-6.9838,-6.9821,-6.9875,-6.9843,-6.9976,-6.9851,-6.9866,-6.9846,-6.9841,-6.9849,-7.0001,-7.0005,-7.0009,-7.0012,0,-6.9618,-6.9597,-6.9649,-6.9697,-6.974,-6.9775,-6.9803,-6.9841,-6.9785,-6.9834,-6.9903,-6.9939,-7.0011,-7.0074,-7.012,-7.0125,-7.0061,-7.0052,-7.0081,-7.0099,-7.011,-7.0106,-6.9702,-7.0042,-7.0039,-7.0037,-7.0035,-7.0034,-6.9847,-6.9916,-6.9928,-6.999,-7.0006,-7.0035,-7.0097,-7.0084,-7.014,-7.0194,-7.0158,-7.0241,-7.0257,-7.0313,-7.0326,-7.0391,-7.0337,-7.0379,-7.0389,-7.0401,-7.0416,-7.0101,-7.0399,-7.0398,-7.0397,-7.0396,-7.0396,0,-7.015,-7.0154,-7.0212,-7.0254,-7.0304,-7.0239,-7.0268,-7.0313,-7.0386,-7.0407,-7.0455,-7.0536,-7.0597,-7.0586,-7.0642,-7.0695,-7.0667,-7.0712,-7.0707,-7.0709,-7.0461,-7.043,-7.0734,-7.0734,-7.0734,-7.0734,-7.0734,-7.0734,-7.0313,-7.0426,-7.0407,-7.0528,-7.0531,-7.0611,-7.0633,-7.066,-7.0676,-7.077,-7.0821,-7.0813,-7.0822,-7.0878,-7.0932,-7.0927,-7.0952,-7.1008,-7.0992,-7.076,-7.0727,-7.0695,-7.0665,-7.1014,-7.1014,-7.1235,-7.1237,-7.1239]},{"header":{"parameterUnit":"m.s-1","parameterCategory":1,"la1":30.2991,"la2":30.254,"lo1":-89.0895,"lo2":-89.0444,"dy":0.0017,"dx":0.0017,"nx":28,"ny":28,"refTime":"2024-12-26T03:00:00:Z","depth":0,"parameterNumber":3,"parameterNumberName":"V-component_of_WINDS"},"data":[0,0,0,0,0,0,0,0,0,0,0,0,0,0,0,0,0,0,0,0,0,0,0,0,0,0,0,0,0,0,0,0,0,0,0,0,0,0,0,0,0,0,0,0,0,0,0,0,0,0,0,0,0,0,0,0,0,0,-0.3938,-0.3938,0,-0.3932,-0.3932,-0.3932,-0.3893,-0.3892,-0.3891,-0.389,-0.3887,-0.3887,-0.3888,0,0,0,0,0,0,0,0,0,0,0,0,0,-0.3916,-0.3917,-0.3938,-0.3938,-0.3938,-0.3932,-0.3932,-0.3932,-0.3893,-0.3892,-0.3891,-0.389,-0.3886,-0.3887,-0.3888,0,0,0,0,0,0,0,0,0,0,0,0,0,-0.3919,-0.3917,-0.3938,-0.3918,-0.3916,-0.3932,-0.3932,-0.3932,-0.3893,-0.3892,-0.3891,-0.3889,-0.3886,-0.3887,-0.3888,-0.3924,0,0,-0.3892,-0.3893,0,0,0,0,0,0,0,0,-0.3919,-0.392,-0.3921,-0.3919,-0.3917,-0.3912,-0.3923,-0.3929,-0.3894,-0.3902,-0.389,-0.3889,-0.3896,-0.3897,-0.3899,-0.3924,-0.3924,-0.3892,-0.3893,-0.3893,-0.3894,0,0,0,0,0,0,0,-0.3919,-0.392,-0.3936,-0.3921,-0.3919,-0.3909,-0.3908,-0.3924,-0.3907,-0.3901,-0.3898,-0.3898,-0.3895,-0.3898,-0.3898,-0.3924,-0.3892,-0.3893,-0.3894,-0.3894,-0.3977,-0.3978,0,0,0,0,0,0,-0.3921,-0.392,-0.3936,-0.3935,-0.3915,-0.3911,-0.3909,-0.3915,-0.3907,-0.3904,-0.3899,-0.3896,-0.3896,-0.3897,-0.3898,-0.3938,-0.3893,-0.3894,-0.3895,-0.3975,-0.3977,-0.3978,0,0,0,0,0,0,-0.3921,-0.3923,-0.3936,-0.3927,-0.3928,-0.3912,-0.3919,-0.3916,-0.3918,-0.3906,-0.3903,-0.3905,-0.3895,-0.3896,-0.3917,-0.3938,-0.3895,-0.3896,-0.3973,-0.3976,-0.3978,-0.4021,0,0,0,0,0,0,-0.3921,-0.3923,-0.3937,-0.3928,-0.3929,-0.3956,-0.392,-0.3916,-0.392,-0.3916,-0.391,-0.3908,-0.3894,-0.3916,-0.3919,-0.3939,-0.3897,-0.3971,-0.3974,-0.3977,-0.4017,-0.4024,-0.403,0,0,0,0,0,-0.392,-0.395,-0.3938,-0.394,-0.3945,-0.3957,-0.3958,-0.3941,-0.3922,-0.3935,-0.3927,-0.3908,-0.3935,-0.3918,-0.3921,-0.3942,-0.397,-0.3974,-0.3977,-0.4014,-0.4023,-0.4029,0,0,0,0,0,0,-0.3964,-0.3949,-0.3935,-0.3963,-0.3961,-0.395,-0.3967,-0.395,-0.3955,-0.3951,-0.393,-0.3929,-0.3953,-0.3949,-0.3931,-0.3975,-0.3949,-0.3953,-0.3977,-0.3985,-0.3991,-0.3991,-0.3898,0,0,0,0,0,-0.3977,-0.3987,-0.3973,-0.4,-0.3999,-0.3983,-0.3988,-0.3974,-0.3972,-0.3972,-0.3965,-0.3964,-0.3972,-0.3978,-0.3985,-0.4016,-0.4014,-0.4031,-0.4038,-0.4043,-0.4047,-0.4062,-0.4069,-0.3989,-0.3989,-0.3989,0,0,-0.4004,-0.3997,-0.4005,-0.4008,-0.4005,-0.4016,-0.3983,-0.3997,-0.4005,-0.3974,-0.3993,-0.3988,-0.3985,-0.4011,-0.4022,-0.4009,-0.4068,-0.4047,-0.4051,-0.4052,-0.4066,-0.4073,-0.408,-0.3992,-0.3991,-0.3991,0,0,-0.4059,-0.4055,-0.4075,-0.4072,-0.4068,-0.4056,-0.4061,-0.4052,-0.4047,-0.4065,-0.4042,-0.4051,-0.4066,-0.4064,-0.4065,-0.4116,-0.4099,-0.4119,-0.4152,-0.4167,-0.4173,-0.4178,-0.4196,-0.4203,-0.4123,-0.4123,-0.4123,0,-0.4093,-0.4109,-0.4088,-0.4102,-0.4104,-0.4075,-0.4095,-0.4094,-0.4092,-0.4094,-0.4078,-0.4094,-0.4091,-0.4115,-0.4127,-0.413,-0.4134,-0.412,-0.4174,-0.4179,-0.4184,-0.42,-0.4207,-0.4126,-0.4125,-0.4125,-0.4125,0,-0.4151,-0.4162,-0.4179,-0.4176,-0.4179,-0.4197,-0.4179,-0.4185,-0.417,-0.416,-0.4179,-0.4173,-0.4177,-0.4182,-0.4169,-0.4204,-0.4195,-0.4177,-0.4151,-0.4194,-0.4209,-0.4216,-0.4129,-0.4128,-0.4128,-0.4127,0,0,-0.4236,-0.4219,-0.4226,-0.4223,-0.4215,-0.4223,-0.4238,-0.4241,-0.4246,-0.4245,-0.4257,-0.4269,-0.4251,-0.4252,-0.4239,-0.4251,-0.4291,-0.4231,-0.4231,-0.4242,-0.4328,-0.4342,-0.435,-0.4279,-0.428,-0.4281,-0.4328,0,-0.4288,-0.4313,-0.4293,-0.4322,-0.4331,-0.4302,-0.4315,-0.4311,-0.4301,-0.4308,-0.4297,-0.4306,-0.4282,-0.4282,-0.4294,-0.4284,-0.4308,-0.428,-0.429,-0.4291,-0.4292,-0.4358,-0.4373,-0.4418,-0.4334,-0.4335,-0.4336,0,-0.4353,-0.4353,-0.4382,-0.4369,-0.4372,-0.4384,-0.4384,-0.4391,-0.4385,-0.4377,-0.4377,-0.4359,-0.4373,-0.4346,-0.4364,-0.4346,-0.4348,-0.4344,-0.4345,-0.4346,-0.4316,-0.4361,-0.4433,-0.4439,-0.4345,-0.4344,-0.4344,0,-0.4412,-0.4419,-0.4436,-0.4435,-0.4421,-0.443,-0.4425,-0.4417,-0.4419,-0.4419,-0.442,-0.4422,-0.4423,-0.4425,-0.4408,-0.439,-0.4428,-0.44,-0.4422,-0.4423,-0.4433,-0.4432,-0.4506,-0.4434,-0.4434,-0.4434,-0.4433,0,-0.4472,-0.4491,-0.4462,-0.4473,-0.4493,-0.4469,-0.449,-0.4481,-0.4474,-0.4483,-0.4458,-0.4467,-0.4443,-0.4449,-0.4436,-0.4453,-0.4454,-0.4447,-0.4444,-0.445,-0.4451,-0.4452,-0.4449,-0.4435,-0.4435,-0.4435,-0.4434,0,-0.4542,-0.4523,-0.454,-0.4524,-0.452,-0.4536,-0.4522,-0.4531,-0.4519,-0.453,-0.4531,-0.4512,-0.4518,-0.45,-0.4504,-0.4495,-0.4519,-0.451,-0.4521,-0.4518,-0.4541,-0.4539,-0.4618,-0.4627,-0.4549,-0.455,-0.4551,0,-0.4582,-0.4595,-0.458,-0.4583,-0.4578,-0.4584,-0.4586,-0.4563,-0.4565,-0.4558,-0.4568,-0.4571,-0.4573,-0.4583,-0.457,-0.4572,-0.4563,-0.459,-0.4563,-0.4568,-0.4563,-0.4562,-0.4563,-0.4597,-0.4597,-0.4598,-0.4599,0,-0.4655,-0.4645,-0.4647,-0.4646,-0.4647,-0.4646,-0.4642,-0.4646,-0.4621,-0.4625,-0.463,-0.4631,-0.4633,-0.4636,-0.4635,-0.4629,-0.461,-0.4607,-0.4612,-0.4619,-0.4624,-0.4621,-0.4536,-0.4606,-0.4605,-0.4605,-0.4604,-0.4604,-0.4711,-0.4721,-0.4711,-0.4714,-0.4708,-0.4705,-0.4712,-0.4699,-0.4702,-0.4701,-0.4687,-0.4695,-0.4686,-0.4682,-0.4678,-0.4684,-0.4671,-0.4679,-0.4681,-0.4683,-0.4686,-0.4623,-0.4683,-0.4683,-0.4683,-0.4683,-0.4683,0,-0.4783,-0.4774,-0.4777,-0.4771,-0.4773,-0.4753,-0.4747,-0.4751,-0.4757,-0.475,-0.4751,-0.4756,-0.4758,-0.4744,-0.4744,-0.4751,-0.4742,-0.4752,-0.4752,-0.475,-0.4698,-0.4693,-0.4759,-0.4759,-0.4759,-0.4759,-0.4759,-0.4759,-0.482,-0.4835,-0.4823,-0.4834,-0.4825,-0.4831,-0.4829,-0.4826,-0.482,-0.4826,-0.4827,-0.4817,-0.4807,-0.4806,-0.4807,-0.4803,-0.4804,-0.4817,-0.481,-0.4762,-0.4754,-0.4747,-0.4743,-0.4818,-0.4818,-0.4862,-0.4862,-0.4863]}]]